Weather Roundup
Issued by NWS Chicago, IL

Home | Current Version | Previous Version | Graphics & Text | Print | Product List | Glossary On
Versions: 1 2 3 4 5 6 7 8 9 10 11 12 13 14 15 16 17 18 19 20 21 22 23 24 25 26 27 28 29 30 31 32 33 34 35 36 37 38 39 40 41 42 43 44 45 46 47 48 49 50
000
NZUS59 KLOT 220606
HRRLOT

CHICAGO AREA WEATHER ROUNDUP
NATIONAL WEATHER SERVICE CHICAGO/ROMEOVILLE IL
100 AM CDT FRI AUG 22 2014

NOTE: "FAIR" INDICATES FEW OR NO CLOUDS BELOW 12,000 FEET WITH NO
SIGNIFICANT WEATHER AND/OR OBSTRUCTIONS TO VISIBILITY.

* THESE STATIONS ARE NOT UNDER NWS QUALITY CONTROL. THEY ALSO MAY NOT
  REPORT WEATHER SUCH AS PRECIPITATION OR FOG.

ILZ005-006-012>014-019>023-220700-
NORTHEAST ILLINOIS

CITY           SKY/WX    TMP DP  RH WIND       PRES   REMARKS
OHARE          TSTM      75  71  87 NW13      29.93F FOG
6HR MIN TEMP:  74; 6HR MAX TEMP:  76; 6HR PCP:  0.02;

MIDWAY         CLOUDY    76  73  91 SE8       29.91F
6HR MIN TEMP:  76; 6HR MAX TEMP:  78;

AURORA         MOCLDY    74  71  91 S3        29.92F
6HR MIN TEMP:  74; 6HR MAX TEMP:  78; 6HR PCP: TRACE;

LANSING*       CLOUDY    73  71  93 CALM      29.92F
JOLIET*          N/A     73  71  93 CALM      29.92S
WAUKEGAN       HVY RAIN  71  70  96 E3        29.92F VSB 1/2
6HR MIN TEMP:  71; 6HR MAX TEMP:  73; 6HR PCP:  0.04;

DUPAGE AIRPORT CLOUDY    74  72  93 NE7       29.92S
6HR MIN TEMP:  74; 6HR MAX TEMP:  77; 6HR PCP:  0.05;

WHEELING       HVY RAIN  75  72  90 CALM      29.94F VSB 1/2
6HR MIN TEMP:  75; 6HR MAX TEMP:  77; 6HR PCP:  0.39;

KANKAKEE*        N/A     73  73  97 SE3       29.92F
MORRIS*        TSTM      75  75 100 CALM      29.93S
LEWIS AIRPORT* LGT RAIN  73  73  99 S5        29.91F
NORTHERLY IS     N/A     73  69  87 SE6         N/A
$$

WIZ051-052-058>065-066-070>072-220700-
SOUTHEAST WISCONSIN

CITY           SKY/WX    TMP DP  RH WIND       PRES   REMARKS
MILWAUKEE      FOG       70  68  93 SE5       29.93F VSB 1/4
6HR MIN TEMP:  70; 6HR MAX TEMP:  74;

KENOSHA*       FOG       71  71 100 CALM      29.93F VSB 1/2
RACINE*        FOG       71  69  93 E3        29.94F VSB 1
BURLINGTON     CLOUDY    69  69  99 CALM      29.93F FOG
WAUKESHA       CLOUDY    68  68 100 CALM      29.95F FOG
WEST BEND      FOG       66  64  94 CALM      29.94F VSB 1/4
$$

INZ001>003-010>013-019-020-220700-
NORTHWEST INDIANA

CITY           SKY/WX    TMP DP  RH WIND       PRES   REMARKS
GARY*          CLOUDY    74  72  93 NE7       29.93F
6HR MIN TEMP:  74; 6HR MAX TEMP:  75;

MICHIGAN CITY* NOT AVBL
RENSSELAER*    NOT AVBL
VALPARAISO     LGT RAIN  71  69  93 SW17      29.97F FOG
$$

LMZ740>746-220700-
SOUTHERN LAKE MICHIGAN

STATION/POSITION TIME  SKY/WX   TEMP WIND        PRES    VSBY
                                AIR  DIR/SP/G
                 (UTC)          (F)  (DEG/KT/KT) (MB)    (MI)
HARRISON CRIB    0600            74  180/  6/  7   N/A
BURNHAM HARBOR   0600            73  150/  2/  8   N/A
CALUMET HARBOR   0600            75   70/  6/  8 1012.2F
BURNS HARBOR     NOT AVBL
MICHIGAN CITY    0600            72  120/  8/ 11   N/A
$$

ABBREVIATIONS USED IN REMARKS
   TC - TEMPERATURE IN CELSIUS
  WCI - WIND CHILL INDEX
   HX - HEAT INDEX
  VSB - VISIBILITY
$$



USA.gov is the U.S. government's official web portal to all federal, state and local government web resources and services.